Time[GMT],dominant_wave_period[s](0m),mean_wave_direction[degrees](0m),max_wave_height[m](0m),significant_wave_height[m](0m),mean_wave_direction_spread[degrees](0m)
2021-05-27 18:00,4.1,116.50,1.48,0.93,27.00
2021-05-27 19:00,4.3,118.50,1.55,0.95,27.00
2021-05-27 20:00,4.3,116.50,1.60,0.92,24.00
2021-05-27 21:00,5.7,116.50,1.38,0.86,26.00
2021-05-27 22:00,5.3,115.50,1.35,0.80,27.00
2021-05-27 23:00,4.5,107.50,1.34,0.75,31.00
2021-05-28 00:00,3.6,107.50,1.11,0.74,33.00
2021-05-28 01:00,5.1,116.50,1.07,0.67,32.00
2021-05-28 02:00,5.6,122.50,1.20,0.62,31.00
2021-05-28 03:00,6.3,123.50,1.01,0.62,31.00
2021-05-28 04:00,6.1,121.50,0.97,0.63,28.00
2021-05-28 05:00,5.9,120.50,1.15,0.68,27.00
2021-05-28 06:00,5.7,118.50,1.09,0.67,27.00
2021-05-28 07:00,6.3,120.50,0.97,0.63,27.00
2021-05-28 08:00,6.1,122.50,1.01,0.73,24.00
2021-05-28 09:00,7.1,121.50,1.17,0.68,25.00
2021-05-28 10:00,5.6,122.50,1.01,0.72,24.00
2021-05-28 11:00,4.0,121.50,1.22,0.69,23.00
2021-05-28 12:00,3.8,120.50,1.15,0.73,23.00
2021-05-28 13:00,6.7,119.50,1.30,0.68,23.00
2021-05-28 14:00,3.9,116.50,1.20,0.78,24.00
2021-05-28 15:00,4.5,121.50,1.16,0.78,24.00
2021-05-28 16:00,5.0,125.50,1.21,0.76,24.00
2021-05-28 17:00,5.4,123.50,1.21,0.69,24.00
2021-05-28 18:00,5.6,125.50,1.30,0.75,21.00
2021-05-28 19:00,8.3,124.50,1.35,0.79,25.00
2021-05-28 20:00,8.0,125.50,1.49,0.89,24.00
2021-05-28 21:00,8.3,125.50,1.30,0.80,26.00
2021-05-28 22:00,8.7,125.50,1.36,0.83,25.00
2021-05-28 23:00,9.1,124.50,1.38,0.87,24.00
2021-05-29 00:00,8.0,119.50,1.40,0.90,24.00
2021-05-29 01:00,4.0,113.50,1.51,1.04,25.00
2021-05-29 02:00,4.1,114.50,1.56,1.03,26.00
2021-05-29 03:00,8.7,117.50,1.59,1.08,25.00
2021-05-29 04:00,4.7,113.50,1.38,0.96,27.00
2021-05-29 05:00,4.8,114.50,1.38,0.94,25.00
2021-05-29 06:00,5.4,123.50,1.15,0.77,26.00
2021-05-29 07:00,8.3,130.50,1.14,0.78,23.00
2021-05-29 08:00,8.3,128.50,1.11,0.76,23.00
2021-05-29 09:00,6.7,128.50,1.33,0.80,24.00
2021-05-29 10:00,6.5,129.50,1.26,0.77,25.00
2021-05-29 11:00,6.5,124.50,1.26,0.79,25.00
2021-05-29 12:00,7.1,121.50,1.42,0.82,25.00
2021-05-29 13:00,5.6,125.50,1.42,0.81,23.00
2021-05-29 14:00,6.1,122.50,1.31,0.83,26.00
2021-05-29 15:00,3.8,122.50,1.21,0.75,28.00
2021-05-29 16:00,6.5,125.50,1.11,0.70,28.00
2021-05-29 17:00,8.7,131.50,0.97,0.61,29.00
2021-05-29 18:00,8.7,131.50,1.03,0.67,28.00
2021-05-29 19:00,5.4,132.50,1.05,0.68,28.00
2021-05-29 20:00,5.0,130.50,1.36,0.71,27.00
2021-05-29 21:00,4.9,130.50,1.49,0.77,26.00
2021-05-29 22:00,4.8,128.50,1.29,0.77,28.00
2021-05-29 23:00,4.9,124.50,1.35,0.80,30.00
2021-05-30 00:00,5.1,119.50,1.53,0.90,29.00
2021-05-30 01:00,5.6,116.50,1.31,0.81,30.00
2021-05-30 02:00,3.8,120.50,1.05,0.69,30.00
2021-05-30 03:00,5.7,124.50,1.22,0.73,31.00
2021-05-30 04:00,4.1,128.50,1.18,0.72,31.00
2021-05-30 05:00,5.3,128.50,0.99,0.71,31.00
2021-05-30 06:00,8.3,127.50,1.60,0.71,29.00
2021-05-30 07:00,4.2,122.50,1.33,0.79,28.00
2021-05-30 08:00,5.0,121.50,1.77,0.87,29.00
2021-05-30 09:00,4.5,119.50,1.82,1.06,27.00
2021-05-30 10:00,4.8,118.50,1.73,1.07,27.00
2021-05-30 11:00,5.1,121.50,1.68,1.11,24.00
2021-05-30 12:00,5.0,120.50,1.98,1.13,23.00
2021-05-30 13:00,5.3,120.50,2.00,1.16,26.00
2021-05-30 14:00,5.4,118.50,1.98,1.25,25.00
2021-05-30 15:00,5.7,118.50,1.75,1.13,26.00
2021-05-30 16:00,5.6,117.50,1.68,1.07,28.00
2021-05-30 17:00,5.4,117.50,2.14,1.29,26.00
2021-05-30 18:00,5.7,119.50,1.60,1.19,25.00
2021-05-30 19:00,5.6,121.50,2.06,1.21,24.00
2021-05-30 20:00,6.1,117.50,1.99,1.26,25.00
2021-05-30 21:00,6.7,115.50,2.08,1.26,26.00
2021-05-30 22:00,5.3,116.50,2.05,1.30,23.00
2021-05-30 23:00,6.1,114.50,2.10,1.28,23.00
2021-05-31 00:00,6.3,111.50,2.25,1.26,23.00
2021-05-31 01:00,6.3,111.50,2.09,1.27,25.00
2021-05-31 02:00,4.5,110.50,1.72,1.11,25.00
2021-05-31 03:00,6.5,117.50,1.60,1.05,26.00
2021-05-31 04:00,6.7,119.50,1.47,0.94,28.00
2021-05-31 05:00,6.3,122.50,1.60,0.94,30.00
2021-05-31 06:00,6.5,122.50,1.36,0.92,27.00
2021-05-31 07:00,6.3,123.50,1.43,0.92,26.00
2021-05-31 08:00,6.5,123.50,1.42,0.84,28.00
2021-05-31 09:00,6.5,124.50,1.30,0.83,24.00
2021-05-31 10:00,6.3,124.50,1.34,0.81,26.00
2021-05-31 11:00,6.1,126.50,1.31,0.85,24.00
2021-05-31 12:00,4.4,125.50,1.53,0.90,23.00
2021-05-31 13:00,5.6,123.50,1.21,0.82,24.00
2021-05-31 14:00,6.5,118.50,1.51,0.97,25.00
2021-05-31 15:00,5.7,118.50,1.84,1.10,25.00
2021-05-31 16:00,5.7,118.50,1.86,1.10,25.00
2021-05-31 17:00,4.1,120.50,1.71,1.03,26.00
2021-05-31 18:00,4.9,121.50,1.68,1.07,26.00
2021-05-31 19:00,6.5,123.50,1.86,1.18,24.00
2021-05-31 20:00,7.1,122.50,1.97,1.22,24.00
2021-05-31 21:00,6.3,125.50,1.92,1.09,26.00
2021-05-31 22:00,6.1,124.50,1.75,1.19,25.00
2021-05-31 23:00,6.3,123.50,2.06,1.24,25.00
2021-06-01 00:00,5.7,121.50,1.74,1.26,22.00
2021-06-01 01:00,6.1,118.50,1.76,1.14,25.00
2021-06-01 02:00,6.9,119.50,1.89,1.10,25.00
2021-06-01 03:00,7.1,121.50,1.72,1.13,23.00
2021-06-01 04:00,5.6,122.50,1.72,1.01,23.00
2021-06-01 05:00,6.9,122.50,1.45,0.93,24.00
2021-06-01 06:00,6.9,125.50,1.37,0.91,25.00
2021-06-01 07:00,6.5,123.50,1.82,1.07,22.00
2021-06-01 08:00,7.1,124.50,1.52,1.12,23.00
2021-06-01 09:00,6.9,126.50,1.76,1.08,23.00
2021-06-01 10:00,6.5,127.50,1.88,1.00,26.00
2021-06-01 11:00,6.5,128.50,1.87,1.10,21.00
2021-06-01 12:00,6.7,127.50,1.48,1.05,24.00
2021-06-01 13:00,6.3,126.50,2.07,1.20,21.00
2021-06-01 14:00,6.5,119.50,2.32,1.22,26.00
2021-06-01 15:00,5.9,118.50,2.19,1.23,26.00
2021-06-01 16:00,5.1,119.50,2.07,1.27,23.00
2021-06-01 17:00,5.9,122.50,1.92,1.17,26.00
2021-06-01 18:00,5.9,123.50,2.38,1.32,24.00
2021-06-01 19:00,6.1,124.50,1.96,1.22,28.00
2021-06-01 20:00,6.7,126.50,1.96,1.05,26.00
2021-06-01 21:00,6.3,125.50,1.68,1.08,28.00
2021-06-01 22:00,6.9,125.50,1.80,1.07,24.00
2021-06-01 23:00,6.7,123.50,1.81,1.10,25.00
2021-06-02 00:00,6.7,121.50,1.90,1.12,25.00
2021-06-02 01:00,6.9,121.50,1.76,1.11,24.00
2021-06-02 02:00,7.7,122.50,1.78,1.08,24.00
2021-06-02 03:00,7.1,122.50,1.49,1.02,25.00
2021-06-02 04:00,6.9,121.50,1.78,1.08,23.00
2021-06-02 05:00,6.5,123.50,1.73,1.01,23.00
2021-06-02 06:00,7.4,125.50,1.56,0.99,23.00
2021-06-02 07:00,7.1,124.50,1.60,0.90,24.00
2021-06-02 08:00,8.0,126.50,1.50,0.95,23.00
2021-06-02 09:00,8.7,124.50,1.60,0.95,25.00
2021-06-02 10:00,6.9,121.50,1.97,0.97,25.00
2021-06-02 11:00,6.5,123.50,2.02,1.02,21.00
2021-06-02 12:00,6.3,123.50,1.57,0.97,24.00
2021-06-02 13:00,6.1,121.50,1.73,1.10,21.00
2021-06-02 14:00,6.9,121.50,1.87,1.06,23.00
2021-06-02 15:00,5.7,116.50,1.87,1.04,26.00
2021-06-02 16:00,4.7,115.50,2.06,1.16,24.00
2021-06-02 17:00,4.4,113.50,1.71,1.10,26.00
2021-06-02 18:00,5.6,115.50,1.81,1.17,26.00
2021-06-02 19:00,4.2,119.50,1.80,1.17,26.00
2021-06-02 20:00,4.3,120.50,2.06,1.09,27.00
2021-06-02 21:00,6.7,122.50,2.00,1.01,30.00
2021-06-02 22:00,6.5,123.50,1.61,1.01,28.00
2021-06-02 23:00,4.5,120.50,1.94,1.06,28.00
2021-06-03 00:00,6.1,119.50,1.89,1.08,26.00
2021-06-03 01:00,6.1,117.50,1.66,1.05,26.00
2021-06-03 02:00,6.5,118.50,1.69,0.97,28.00
2021-06-03 03:00,5.6,121.50,1.49,0.91,26.00
2021-06-03 04:00,6.5,121.50,1.72,0.95,25.00
2021-06-03 05:00,5.9,121.50,1.66,1.07,25.00
2021-06-03 06:00,5.6,119.50,1.40,0.92,27.00
2021-06-03 07:00,4.5,115.50,1.56,0.92,26.00
2021-06-03 08:00,6.5,119.50,1.40,0.93,24.00
2021-06-03 09:00,6.1,121.50,1.47,0.92,24.00
2021-06-03 10:00,6.1,120.50,1.55,0.99,24.00
2021-06-03 11:00,5.4,119.50,1.61,0.97,24.00
2021-06-03 12:00,5.7,121.50,1.43,0.98,22.00
2021-06-03 13:00,5.7,119.50,1.89,1.08,22.00
2021-06-03 14:00,5.7,118.50,2.04,1.09,23.00
2021-06-03 15:00,5.6,116.50,1.88,1.18,24.00
2021-06-03 16:00,5.1,113.50,2.40,1.15,25.00
2021-06-03 17:00,5.0,114.50,1.91,1.29,24.00
2021-06-03 18:00,5.3,113.50,2.18,1.33,23.00
2021-06-03 19:00,5.9,114.50,1.89,1.22,24.00
2021-06-03 20:00,5.0,114.50,1.75,1.10,27.00
2021-06-03 21:00,5.6,116.50,1.92,1.17,28.00
2021-06-03 22:00,5.7,115.50,2.11,1.21,26.00
2021-06-03 23:00,6.7,113.50,2.00,1.21,24.00
2021-06-04 00:00,6.9,120.50,1.80,1.09,25.00
2021-06-04 01:00,6.7,116.50,1.66,1.05,25.00
2021-06-04 02:00,6.1,119.50,1.63,1.06,23.00
2021-06-04 03:00,6.5,119.50,2.01,1.05,24.00
2021-06-04 04:00,5.9,118.50,1.82,1.14,23.00
2021-06-04 05:00,6.3,120.50,1.85,1.07,23.00
2021-06-04 06:00,6.9,120.50,1.56,1.00,23.00
2021-06-04 07:00,6.5,122.50,1.72,1.15,22.00
2021-06-04 08:00,5.4,121.50,1.83,1.11,22.00
2021-06-04 09:00,6.7,121.50,1.85,1.05,23.00
2021-06-04 10:00,5.7,119.50,1.47,1.02,24.00
2021-06-04 11:00,5.6,119.50,1.81,1.01,25.00
2021-06-04 12:00,6.1,119.50,1.45,0.98,25.00
2021-06-04 13:00,6.1,118.50,1.61,1.02,23.00
2021-06-04 14:00,5.7,119.50,1.83,1.05,23.00
2021-06-04 15:00,5.1,117.50,2.15,1.07,26.00
2021-06-04 16:00,6.1,118.50,1.86,1.11,24.00
2021-06-04 17:00,6.1,117.50,1.78,1.15,25.00
2021-06-04 18:00,5.7,118.50,1.86,1.24,24.00
2021-06-04 19:00,5.9,115.50,1.95,1.26,26.00
2021-06-04 20:00,5.7,116.50,1.84,1.13,27.00
2021-06-04 21:00,5.6,119.50,1.89,1.10,27.00
2021-06-04 22:00,6.9,115.50,2.05,1.12,26.00
2021-06-04 23:00,5.9,113.50,1.70,1.11,25.00
2021-06-05 00:00,6.3,115.50,1.86,1.16,25.00
2021-06-05 01:00,6.1,117.50,1.87,1.02,26.00
2021-06-05 02:00,5.7,121.50,1.63,1.00,25.00
2021-06-05 03:00,5.3,121.50,1.60,1.07,25.00
2021-06-05 04:00,5.4,121.50,1.59,0.99,26.00
2021-06-05 05:00,5.7,123.50,1.70,1.09,28.00
2021-06-05 06:00,6.1,120.50,2.01,1.11,25.00
2021-06-05 07:00,6.7,122.50,1.60,1.05,28.00
2021-06-05 08:00,5.9,118.50,1.75,1.11,26.00
2021-06-05 09:00,6.3,119.50,1.74,1.10,26.00
2021-06-05 10:00,6.3,118.50,1.66,1.09,26.00
2021-06-05 11:00,5.6,118.50,2.12,1.12,27.00
2021-06-05 12:00,5.7,120.50,1.77,1.17,28.00
2021-06-05 13:00,5.4,120.50,1.94,1.12,28.00
2021-06-05 14:00,5.3,119.50,2.12,1.37,24.00
2021-06-05 15:00,5.3,117.50,2.28,1.23,25.00
2021-06-05 16:00,5.9,117.50,2.13,1.29,26.00
2021-06-05 17:00,5.3,118.50,2.43,1.33,25.00
2021-06-05 18:00,4.1,116.50,2.23,1.33,25.00
2021-06-05 19:00,5.3,117.50,2.17,1.25,27.00
2021-06-05 20:00,4.7,121.50,1.98,1.33,27.00
2021-06-05 21:00,4.5,115.50,2.04,1.27,27.00
2021-06-05 22:00,5.6,119.50,2.28,1.42,25.00
2021-06-05 23:00,6.3,122.50,2.29,1.43,25.00
2021-06-06 00:00,6.5,120.50,2.24,1.26,29.00
2021-06-06 01:00,6.9,119.50,2.40,1.27,28.00
2021-06-06 02:00,6.9,117.50,1.92,1.20,28.00
2021-06-06 03:00,6.9,120.50,2.19,1.28,28.00
2021-06-06 04:00,6.7,121.50,1.90,1.20,26.00
2021-06-06 05:00,6.5,119.50,1.75,1.16,26.00
2021-06-06 06:00,5.7,121.50,1.94,1.16,26.00
2021-06-06 07:00,6.1,117.50,1.97,1.16,25.00
2021-06-06 08:00,6.7,124.50,1.69,1.16,25.00
2021-06-06 09:00,6.9,124.50,1.68,1.17,25.00
2021-06-06 10:00,6.9,126.50,2.20,1.15,24.00
2021-06-06 11:00,7.7,123.50,2.07,1.22,24.00
2021-06-06 12:00,6.9,125.50,1.60,1.12,24.00
2021-06-06 13:00,6.5,122.50,1.91,1.09,24.00
2021-06-06 14:00,6.9,118.50,1.81,1.22,23.00
2021-06-06 15:00,6.7,119.50,1.90,1.24,23.00
2021-06-06 16:00,6.9,119.50,3.03,1.33,23.00
2021-06-06 17:00,6.5,117.50,2.32,1.45,22.00
2021-06-06 18:00,5.0,118.50,2.05,1.46,25.00
2021-06-06 19:00,6.7,118.50,2.39,1.56,23.00
2021-06-06 20:00,7.1,117.50,2.38,1.48,26.00
2021-06-06 21:00,7.1,120.50,2.17,1.44,25.00
2021-06-06 22:00,7.4,120.50,2.38,1.54,24.00
2021-06-06 23:00,6.9,117.50,2.05,1.30,24.00
2021-06-07 00:00,7.4,118.50,1.89,1.31,25.00
2021-06-07 01:00,6.5,123.50,2.11,1.20,27.00
2021-06-07 02:00,7.1,125.50,2.32,1.21,23.00
2021-06-07 03:00,6.3,123.50,2.13,1.21,26.00
2021-06-07 04:00,8.3,123.50,1.71,1.07,26.00
2021-06-07 05:00,6.5,121.50,1.66,1.13,27.00
2021-06-07 06:00,6.5,125.50,1.80,1.19,25.00
2021-06-07 07:00,6.5,123.50,2.09,1.08,27.00
2021-06-07 08:00,8.3,129.50,1.75,1.12,23.00
2021-06-07 09:00,6.5,126.50,1.91,1.09,24.00
2021-06-07 10:00,6.5,126.50,1.67,1.04,24.00
2021-06-07 11:00,6.5,123.50,1.77,1.03,25.00
2021-06-07 12:00,6.9,122.50,1.91,1.08,23.00
2021-06-07 13:00,6.9,123.50,1.75,1.02,26.00
2021-06-07 14:00,6.5,120.50,1.62,1.05,26.00
2021-06-07 15:00,6.7,120.50,2.03,1.06,26.00
2021-06-07 16:00,6.3,118.50,1.81,1.09,27.00
2021-06-07 17:00,6.7,121.50,1.97,1.07,26.00
2021-06-07 18:00,4.7,117.50,1.75,1.15,27.00
2021-06-07 19:00,6.7,119.50,1.90,1.17,25.00
2021-06-07 20:00,6.9,118.50,1.89,1.14,25.00
2021-06-07 21:00,6.5,117.50,1.80,1.13,25.00
2021-06-07 22:00,6.5,114.50,1.65,1.14,24.00
2021-06-07 23:00,6.5,119.50,1.63,1.14,26.00
2021-06-08 00:00,6.1,116.50,1.69,1.19,26.00
2021-06-08 01:00,6.3,116.50,1.79,1.06,27.00
2021-06-08 02:00,6.5,119.50,1.62,0.96,25.00
2021-06-08 03:00,6.1,120.50,1.42,0.94,25.00
2021-06-08 04:00,9.1,122.50,1.46,0.89,27.00
2021-06-08 05:00,6.1,123.50,1.47,0.90,30.00
2021-06-08 06:00,6.1,121.50,1.45,0.91,27.00
2021-06-08 07:00,5.6,118.50,1.62,1.04,26.00
2021-06-08 08:00,6.5,125.50,1.45,1.01,23.00
2021-06-08 09:00,6.3,120.50,1.71,0.97,27.00
2021-06-08 10:00,6.5,122.50,1.71,0.98,26.00
2021-06-08 11:00,5.9,120.50,1.67,0.99,27.00
2021-06-08 12:00,6.1,123.50,1.63,0.98,23.00
2021-06-08 13:00,6.3,119.50,2.02,1.14,23.00
2021-06-08 14:00,5.3,114.50,2.05,1.17,25.00
2021-06-08 15:00,5.7,114.50,1.81,1.14,25.00
2021-06-08 16:00,6.1,117.50,1.64,1.15,28.00
2021-06-08 17:00,6.5,116.50,2.07,1.21,26.00
2021-06-08 18:00,6.3,117.50,2.08,1.16,27.00
2021-06-08 19:00,6.1,121.50,2.02,1.33,25.00
2021-06-08 20:00,6.3,124.50,2.45,1.53,25.00
2021-06-08 21:00,6.7,127.50,2.39,1.33,28.00
2021-06-08 22:00,5.4,126.50,1.98,1.19,26.00
2021-06-08 23:00,6.1,123.50,1.78,1.20,26.00
2021-06-09 00:00,7.4,124.50,1.76,1.10,25.00
2021-06-09 01:00,6.7,124.50,1.77,1.04,26.00
2021-06-09 02:00,6.7,122.50,1.64,0.94,25.00
2021-06-09 03:00,6.9,121.50,1.68,0.91,25.00
2021-06-09 04:00,6.7,120.50,1.66,1.04,23.00
2021-06-09 05:00,6.7,122.50,1.58,1.06,23.00
2021-06-09 06:00,7.4,125.50,1.63,1.06,23.00
2021-06-09 07:00,8.3,123.50,1.81,0.97,23.00
2021-06-09 08:00,6.5,124.50,1.82,1.01,21.00
2021-06-09 09:00,9.5,126.50,1.42,0.92,24.00
2021-06-09 10:00,6.1,127.50,1.35,0.93,23.00
2021-06-09 11:00,6.3,125.50,1.69,0.96,23.00
2021-06-09 12:00,7.1,127.50,1.61,1.01,23.00
2021-06-09 13:00,5.9,127.50,1.38,1.04,23.00
2021-06-09 14:00,6.5,124.50,1.85,1.12,23.00
2021-06-09 15:00,6.9,123.50,1.64,1.07,26.00
2021-06-09 16:00,6.5,120.50,1.89,1.16,24.00
2021-06-09 17:00,6.3,119.50,2.15,1.19,26.00
2021-06-09 18:00,4.7,120.50,1.92,1.20,26.00
2021-06-09 19:00,6.3,121.50,2.18,1.27,23.00
2021-06-09 20:00,6.3,120.50,2.01,1.21,25.00
2021-06-09 21:00,6.7,123.50,2.24,1.09,27.00
2021-06-09 22:00,6.9,125.50,1.77,1.20,23.00
2021-06-09 23:00,6.7,125.50,1.57,1.10,26.00
2021-06-10 00:00,6.9,124.50,1.84,1.06,26.00
2021-06-10 01:00,6.5,125.50,2.01,1.15,25.00
2021-06-10 02:00,5.6,123.50,1.85,1.09,24.00
2021-06-10 03:00,6.5,124.50,2.05,1.12,23.00
2021-06-10 04:00,9.5,125.50,1.47,1.00,26.00
2021-06-10 05:00,9.5,130.50,1.54,1.03,22.00
2021-06-10 06:00,6.5,129.50,1.59,0.98,24.00
2021-06-10 07:00,5.9,131.50,1.81,0.95,23.00
2021-06-10 08:00,9.1,133.50,1.42,0.84,25.00
2021-06-10 09:00,9.5,132.50,1.75,0.93,22.00
2021-06-10 10:00,9.5,130.50,1.30,0.81,26.00
2021-06-10 11:00,6.7,130.50,1.15,0.78,26.00
2021-06-10 12:00,9.1,133.50,1.19,0.76,27.00
2021-06-10 13:00,6.5,131.50,1.43,0.83,24.00
2021-06-10 14:00,5.9,128.50,1.40,0.87,25.00
2021-06-10 15:00,9.1,126.50,1.68,0.87,25.00
2021-06-10 16:00,9.5,122.50,1.34,0.90,24.00
2021-06-10 17:00,9.1,122.50,1.70,1.09,23.00
2021-06-10 18:00,9.5,120.50,1.68,1.06,24.00
2021-06-10 19:00,4.7,115.50,1.81,1.06,26.00
2021-06-10 20:00,6.1,115.50,2.04,1.07,24.00
2021-06-10 21:00,9.1,117.50,1.83,1.08,25.00
2021-06-10 22:00,10.0,120.50,1.76,1.11,26.00
2021-06-10 23:00,9.5,118.50,1.50,1.03,28.00
2021-06-11 00:00,4.5,116.50,1.65,1.02,24.00
2021-06-11 01:00,9.1,121.50,1.49,1.00,25.00
2021-06-11 02:00,9.5,118.50,1.63,0.96,26.00
2021-06-11 03:00,9.5,122.50,1.37,0.89,25.00
2021-06-11 04:00,9.1,125.50,1.62,0.84,26.00
2021-06-11 05:00,10.0,124.50,1.23,0.89,22.00
2021-06-11 06:00,9.1,124.50,1.39,0.83,25.00
2021-06-11 07:00,9.5,129.50,1.86,0.86,23.00
2021-06-11 08:00,9.5,130.50,1.64,0.78,26.00
2021-06-11 09:00,9.1,128.50,1.42,0.78,26.00
2021-06-11 10:00,9.5,130.50,1.34,0.78,25.00
2021-06-11 11:00,9.5,132.50,1.22,0.74,27.00
2021-06-11 12:00,9.1,131.50,1.39,0.74,27.00
2021-06-11 13:00,9.5,129.50,1.35,0.78,26.00
2021-06-11 14:00,6.1,130.50,1.21,0.77,26.00
2021-06-11 15:00,9.1,131.50,1.24,0.74,28.00
2021-06-11 16:00,9.1,127.50,1.34,0.81,28.00
2021-06-11 17:00,9.5,127.50,1.41,0.81,26.00
2021-06-11 18:00,9.5,126.50,1.47,0.82,28.00
2021-06-11 19:00,10.5,124.50,1.29,0.82,26.00
2021-06-11 20:00,10.0,126.50,1.39,0.83,25.00
2021-06-11 21:00,10.0,126.50,1.21,0.80,28.00
2021-06-11 22:00,10.0,124.50,1.31,0.83,29.00
2021-06-11 23:00,10.0,126.50,1.23,0.80,28.00
2021-06-12 00:00,10.5,125.50,1.29,0.77,29.00
2021-06-12 01:00,10.5,121.50,1.21,0.74,31.00
2021-06-12 02:00,10.0,121.50,1.08,0.75,30.00
2021-06-12 03:00,3.8,116.50,1.39,0.87,29.00
2021-06-12 04:00,10.5,115.50,1.36,0.75,30.00
2021-06-12 05:00,9.5,118.50,1.30,0.72,28.00
2021-06-12 06:00,10.5,123.50,1.22,0.70,30.00
2021-06-12 07:00,9.5,129.50,1.17,0.73,27.00
2021-06-12 08:00,10.0,128.50,1.35,0.73,27.00
2021-06-12 09:00,10.0,131.50,1.17,0.76,25.00
2021-06-12 10:00,5.1,131.50,1.11,0.74,26.00
2021-06-12 11:00,10.0,134.50,1.16,0.74,27.00
2021-06-12 12:00,6.1,129.50,1.33,0.81,27.00
2021-06-12 13:00,5.7,126.50,1.34,0.80,27.00
2021-06-12 14:00,5.6,123.50,1.41,0.84,29.00
2021-06-12 15:00,6.7,125.50,1.37,0.88,28.00
2021-06-12 16:00,6.5,123.50,1.57,0.86,29.00
2021-06-12 17:00,6.5,123.50,1.41,0.91,27.00
2021-06-12 18:00,6.5,124.50,1.36,0.91,26.00
2021-06-12 19:00,5.7,127.50,1.28,0.88,28.00
2021-06-12 20:00,6.1,127.50,1.45,0.85,27.00
2021-06-12 21:00,9.5,126.50,1.30,0.82,26.00
2021-06-12 22:00,3.4,127.50,1.16,0.75,29.00
2021-06-12 23:00,3.3,125.50,1.21,0.76,30.00
2021-06-13 00:00,5.4,124.50,1.49,0.81,28.00
2021-06-13 01:00,4.3,123.50,1.48,0.81,27.00
2021-06-13 02:00,3.6,123.50,1.19,0.79,29.00
2021-06-13 03:00,3.5,120.50,1.28,0.78,28.00
2021-06-13 04:00,3.7,122.50,1.18,0.74,30.00
2021-06-13 05:00,5.1,124.50,1.32,0.74,30.00
2021-06-13 06:00,9.5,123.50,1.33,0.77,28.00
2021-06-13 07:00,4.3,126.50,1.36,0.73,30.00
2021-06-13 08:00,4.9,131.50,1.08,0.72,28.00
2021-06-13 09:00,4.1,133.50,1.20,0.65,30.00
2021-06-13 10:00,5.6,137.50,1.10,0.67,30.00
2021-06-13 11:00,5.4,138.50,1.11,0.68,30.00
2021-06-13 12:00,9.5,139.50,1.13,0.66,29.00
2021-06-13 13:00,9.1,138.50,1.22,0.70,27.00
2021-06-13 14:00,9.5,133.50,1.19,0.68,30.00
2021-06-13 15:00,9.5,128.50,1.13,0.74,30.00
2021-06-13 16:00,5.0,127.50,1.46,0.81,30.00
2021-06-13 17:00,3.9,125.50,1.35,0.90,29.00
2021-06-13 18:00,3.6,125.50,1.50,1.00,26.00
2021-06-13 19:00,3.7,127.50,1.54,0.92,30.00
2021-06-13 20:00,3.9,124.50,1.69,1.04,28.00
2021-06-13 21:00,4.1,124.50,1.54,1.01,30.00
2021-06-13 22:00,3.8,122.50,1.34,0.96,32.00
2021-06-13 23:00,5.6,126.50,1.60,0.99,31.00
2021-06-14 00:00,5.4,125.50,1.68,0.94,29.00
2021-06-14 01:00,5.7,123.50,1.61,1.00,28.00
2021-06-14 02:00,5.7,120.50,1.59,1.04,26.00
2021-06-14 03:00,5.6,121.50,1.99,1.10,27.00
2021-06-14 04:00,5.9,120.50,1.85,1.07,25.00
2021-06-14 05:00,5.7,124.50,1.51,0.97,27.00
2021-06-14 06:00,5.3,122.50,1.69,0.99,25.00
2021-06-14 07:00,5.6,125.50,1.52,0.98,25.00
2021-06-14 08:00,5.9,125.50,1.44,0.93,25.00
2021-06-14 09:00,5.7,127.50,1.33,0.91,28.00
2021-06-14 10:00,5.6,130.50,1.60,0.87,29.00
2021-06-14 11:00,5.7,129.50,1.73,1.02,25.00
2021-06-14 12:00,5.4,129.50,1.97,0.97,27.00
2021-06-14 13:00,5.7,128.50,1.54,1.00,26.00
2021-06-14 14:00,5.7,126.50,1.89,0.99,25.00
2021-06-14 15:00,5.7,123.50,1.64,1.10,26.00
2021-06-14 16:00,6.5,129.50,1.59,0.98,29.00
2021-06-14 17:00,5.3,129.50,1.91,1.09,25.00
2021-06-14 18:00,5.9,128.50,1.84,1.06,24.00
2021-06-14 19:00,6.1,125.50,1.53,1.02,28.00
2021-06-14 20:00,6.7,122.50,1.84,1.03,27.00
2021-06-14 21:00,6.5,121.50,2.30,1.11,29.00
2021-06-14 22:00,6.7,119.50,1.62,1.13,27.00
2021-06-14 23:00,6.7,119.50,1.75,1.14,27.00
2021-06-15 00:00,6.7,120.50,1.71,1.09,29.00
2021-06-15 01:00,6.3,124.50,1.64,1.02,26.00
2021-06-15 02:00,6.5,123.50,1.76,1.13,24.00
2021-06-15 03:00,6.5,119.50,1.76,1.04,25.00
2021-06-15 04:00,6.7,121.50,1.52,1.00,23.00
2021-06-15 05:00,6.5,120.50,1.78,1.07,21.00
2021-06-15 06:00,6.5,119.50,1.70,1.08,22.00
2021-06-15 07:00,6.5,119.50,1.78,1.06,23.00
2021-06-15 08:00,6.7,118.50,1.63,1.09,24.00
2021-06-15 09:00,6.5,119.50,2.09,1.15,24.00
2021-06-15 10:00,6.9,118.50,1.83,1.14,25.00
2021-06-15 11:00,6.3,123.50,1.56,1.05,27.00
2021-06-15 12:00,6.3,123.50,1.71,1.11,23.00
2021-06-15 13:00,5.9,124.50,1.97,1.09,26.00
2021-06-15 14:00,6.7,124.50,2.18,1.21,22.00
2021-06-15 15:00,6.5,123.50,1.71,1.22,23.00
2021-06-15 16:00,7.1,122.50,1.88,1.20,26.00
2021-06-15 17:00,6.7,120.50,2.12,1.32,23.00
2021-06-15 18:00,6.9,122.50,1.94,1.28,24.00
2021-06-15 19:00,6.9,123.50,2.08,1.33,24.00
2021-06-15 20:00,7.1,124.50,2.60,1.49,23.00
2021-06-15 21:00,6.9,123.50,2.30,1.29,26.00
2021-06-15 22:00,7.4,122.50,2.10,1.37,25.00
2021-06-15 23:00,7.4,121.50,2.05,1.35,24.00
2021-06-16 00:00,7.4,122.50,2.12,1.30,24.00
2021-06-16 01:00,7.4,127.50,1.95,1.26,24.00
2021-06-16 02:00,8.3,125.50,2.10,1.14,23.00
2021-06-16 03:00,7.4,125.50,2.17,1.24,23.00
2021-06-16 04:00,6.9,125.50,1.75,1.18,23.00
2021-06-16 05:00,6.9,125.50,1.81,1.22,21.00
2021-06-16 06:00,6.9,125.50,1.92,1.29,22.00
2021-06-16 07:00,7.1,125.50,2.34,1.38,21.00
2021-06-16 08:00,7.4,124.50,2.21,1.41,21.00
2021-06-16 09:00,6.9,123.50,2.01,1.20,24.00
2021-06-16 10:00,7.1,127.50,1.88,1.15,24.00
2021-06-16 11:00,7.1,126.50,2.34,1.21,21.00
2021-06-16 12:00,6.5,127.50,1.83,1.15,23.00
2021-06-16 13:00,6.7,126.50,1.71,1.17,24.00
2021-06-16 14:00,6.9,127.50,1.81,1.13,26.00
2021-06-16 15:00,7.7,123.50,1.72,1.08,26.00
2021-06-16 16:00,6.1,122.50,2.02,1.23,26.00
2021-06-16 17:00,6.7,122.50,2.07,1.21,27.00
2021-06-16 18:00,7.4,122.50,2.49,1.30,26.00
2021-06-16 19:00,7.4,125.50,2.40,1.26,25.00
2021-06-16 20:00,6.7,124.50,1.81,1.12,27.00
2021-06-16 21:00,7.1,125.50,2.18,1.24,24.00
2021-06-16 22:00,6.1,125.50,1.94,1.20,24.00
2021-06-16 23:00,6.7,125.50,2.21,1.27,26.00
2021-06-17 00:00,8.0,126.50,2.40,1.13,26.00
2021-06-17 01:00,7.1,125.50,2.37,1.12,25.00
2021-06-17 02:00,6.3,125.50,1.79,1.09,26.00
2021-06-17 03:00,5.7,121.50,1.95,1.17,27.00
2021-06-17 04:00,6.5,121.50,1.89,1.11,27.00
2021-06-17 05:00,6.1,126.50,2.16,1.35,21.00
2021-06-17 06:00,6.3,125.50,1.90,1.20,24.00
2021-06-17 07:00,7.1,129.50,1.90,1.23,23.00
2021-06-17 08:00,6.5,129.50,1.92,1.20,21.00
2021-06-17 09:00,6.5,129.50,1.70,1.16,24.00
2021-06-17 10:00,6.5,129.50,2.15,1.17,21.00
2021-06-17 11:00,6.1,130.50,1.73,1.14,23.00
2021-06-17 12:00,6.3,131.50,1.89,1.15,23.00
2021-06-17 13:00,5.9,129.50,1.91,1.03,27.00
2021-06-17 14:00,6.3,128.50,2.21,1.13,24.00
2021-06-17 15:00,6.1,125.50,2.05,1.10,25.00
2021-06-17 16:00,7.1,123.50,1.85,1.04,27.00
2021-06-17 17:00,6.9,124.50,1.56,1.05,27.00
2021-06-17 18:00,6.9,117.50,2.14,1.29,26.00
2021-06-17 19:00,6.9,119.50,2.08,1.25,28.00
2021-06-17 20:00,7.4,122.50,2.10,1.28,26.00
2021-06-17 21:00,7.1,121.50,2.00,1.25,27.00
2021-06-17 22:00,7.4,120.50,2.66,1.36,27.00
2021-06-17 23:00,7.1,122.50,2.62,1.42,28.00
2021-06-18 00:00,7.4,122.50,2.68,1.48,29.00
2021-06-18 01:00,6.5,127.50,2.74,1.71,27.00
2021-06-18 02:00,7.1,127.50,3.08,1.81,26.00
2021-06-18 03:00,7.4,133.50,2.67,1.91,26.00
2021-06-18 04:00,7.1,132.50,2.44,1.73,26.00
2021-06-18 05:00,8.0,131.50,3.06,1.98,23.00
2021-06-18 06:00,8.3,133.50,2.93,1.90,24.00
2021-06-18 07:00,8.3,134.50,2.75,1.78,26.00
2021-06-18 08:00,8.0,131.50,3.25,1.77,24.00
2021-06-18 09:00,7.7,134.50,2.89,1.81,22.00
2021-06-18 10:00,7.7,132.50,2.53,1.79,22.00
2021-06-18 11:00,8.3,133.50,2.29,1.60,24.00
2021-06-18 12:00,8.3,133.50,2.46,1.59,27.00
2021-06-18 13:00,8.3,134.50,2.38,1.50,28.00
2021-06-18 14:00,8.0,129.50,2.49,1.59,27.00
2021-06-18 15:00,8.3,133.50,2.45,1.56,25.00
2021-06-18 16:00,8.0,131.50,2.59,1.53,26.00
2021-06-18 17:00,8.7,133.50,2.37,1.46,28.00
2021-06-18 18:00,7.1,131.50,2.29,1.52,26.00